User: anonymous   Login
Location: Biharia
(46.4333°N, 22.8000°E)
Time: 06:30:36
(UTC+00:00)
Language:

CZ-2C R/B - Orbit

View from above orbital plane
View from above orbital plane
View from above satellite
View from above satellite

Ground track
Ground track

The orbit data is extracted from the following two-line orbital elements,

1 31114U 07010B   22027.42983037  .00000045  00000-0  39411-4 0  9998
2 31114  98.2292 210.3898 0059454 350.4777   9.5269 14.19388865766558
Epoch (UTC): 27 January 2022 10:18:57
Eccentricity: 0.0059454
inclination: 98.2292°
perigee height: 784 km
apogee height: 870 km
right ascension of ascending node: 210.3898°
argument of perigee: 350.4777°
revolutions per day: 14.19388865
mean anomaly at epoch: 9.5269°
orbit number at epoch: 76655

The dashed part of the orbit path shows where the satellite is in the earth's shadow,  

DLR